Waarnemingen

Advertentie
Mijn weer
Nice, Frankrijk (7690): temperatuur & dauwpunt: 15.08.2018 06:00:00 - 21.08.2018 06:00:00 (CEST)Nice, Frankrijk (7690): temperatuur 5cm: 15.08.2018 06:00:00 - 21.08.2018 06:00:00 (CEST)Nice, Frankrijk (7690): temperatuur -20cm & temperatuur -100cm: 15.08.2018 06:00:00 - 21.08.2018 06:00:00 (CEST)Nice, Frankrijk (7690): windsnelheid & windstoten: 15.08.2018 06:00:00 - 21.08.2018 06:00:00 (CEST)Nice, Frankrijk (7690): windrichting: 15.08.2018 06:00:00 - 21.08.2018 06:00:00 (CEST)Nice, Frankrijk (7690): luchtdruk: 15.08.2018 06:00:00 - 21.08.2018 06:00:00 (CEST)Nice, Frankrijk (7690): zicht: 15.08.2018 06:00:00 - 21.08.2018 06:00:00 (CEST)Nice, Frankrijk (7690): Zonneschijnduur: 15.08.2018 06:00:00 - 21.08.2018 06:00:00 (CEST)Nice, Frankrijk (7690): neerslag: 15.08.2018 06:00:00 - 21.08.2018 06:00:00 (CEST)
Datum & Tijd tt [°C] td [°C] tt 5cm [°C] tt -20cm [°C] tt -100cm [°C] ff [km/u] ff [kn] fx [km/u] fx [kn] dd ppp [hPa] vv [km] sd [min] rr [mm]
21.08.2018 06:00:00 24,3 15,2 23,8 28,2 26,9 20 11 27 15 NNW 1014,6 40 0 0,0
21.08.2018 05:00:00 24,4 15,6 24,1 28,2 27,0 18 10 31 17 NNW 1014,2 40 0 0,0
21.08.2018 04:00:00 25,3 15,9 24,9 28,2 27,0 15 8 27 15 NNW 1014,1 40 0 0,0
21.08.2018 03:00:00 25,8 16,1 25,3 28,1 26,9 23 12 32 17 N 1014,2 40 0 0,0
21.08.2018 02:00:00 26,4 16,3 25,8 28,1 27,0 22 12 35 19 N 1014,2 40 0 0,0
21.08.2018 01:00:00 27,2 15,9 26,6 28,1 26,9 21 12 31 17 NNW 1014,4 40 0 0,0
21.08.2018 00:00:00 28,0 15,6 27,4 28,0 27,1 21 11 29 16 NNW 1014,2 40 0 0,0
20.08.2018 23:00:00 28,2 15,5 27,4 28,1 27,0 18 10 31 17 NNW 1014,3 40 0 0,0
20.08.2018 22:00:00 28,3 15,6 27,2 28,0 26,8 14 8 23 13 NNO 1014,6 40 0 0,0
20.08.2018 21:00:00 28,7 15,2 27,8 28,0 26,9 13 7 27 15 NNW 1014,5 40 0 0,0
20.08.2018 20:00:00 30,3 15,6 30,5 28,0 26,9 16 9 26 14 NNW 1014,4 40 17 0,0
20.08.2018 19:00:00 31,1 15,9 32,3 28,0 26,9 14 7 21 11 W 1014,3 40 21 0,0
20.08.2018 18:00:00 30,5 16,5 32,8 28,0 27,0 10 5 16 9 WZW 1014,3 40 45 0,0
20.08.2018 17:00:00 31,1 17,8 40,4 28,0 26,8 8 5 12 6 ZZW 1014,0 40 60 0,0
20.08.2018 16:00:00 30,9 19,3 33,9 28,0 26,7 4 2 8 4 ZZO 1014,4 40 45 0,0
20.08.2018 15:00:00 30,6 20,2 36,8 28,0 26,9 5 3 11 6 ZO 1015,2 40 42 0,0
20.08.2018 14:00:00 30,1 21,5 37,4 28,0 26,9 9 5 13 7 ZO 1015,4 40 60 0,0
20.08.2018 13:00:00 30,8 20,4 39,0 28,0 26,8 7 4 13 7 ZO 1015,6 40 60 0,0
20.08.2018 12:00:00 31,8 15,7 40,9 28,0 27,0 6 3 10 5 ZZO 1015,5 40 60 0,0
20.08.2018 11:00:00 31,8 14,9 35,2 28,0 26,9 8 5 23 12 NNW 1015,4 40 60 0,0
20.08.2018 10:00:00 29,1 14,5 31,3 28,0 26,9 16 9 26 14 NNW 1015,4 40 60 0,0
20.08.2018 09:00:00 26,9 14,6 25,6 28,0 26,9 18 10 39 21 NNW 1015,4 30 48 0,0
20.08.2018 08:00:00 24,7 14,5 23,9 28,0 26,9 18 10 31 17 N 1015,3 30 10 0,0
20.08.2018 07:00:00 24,2 14,9 23,7 28,0 26,9 14 8 26 14 N 1014,9 30 0 0,0
20.08.2018 06:00:00 24,2 14,9 23,8 28,0 26,8 16 9 29 15 N 1015,1 25 0 0,0
20.08.2018 05:00:00 24,8 15,1 24,3 28,0 26,9 19 11 27 15 NNW 1015,2 25 0 0,0
20.08.2018 04:00:00 25,3 15,3 24,8 27,9 26,8 16 9 21 11 NNW 1015,4 25 0 0,0
20.08.2018 03:00:00 25,8 15,5 25,3 27,9 26,9 14 7 24 13 NNW 1015,4 25 0 0,0
20.08.2018 02:00:00 26,0 15,7 25,6 27,9 26,9 19 10 26 14 NNW 1015,3 25 0 0,0
20.08.2018 01:00:00 26,5 15,8 25,9 27,8 26,8 10 6 22 12 NNW 1015,7 25 0 0,0
20.08.2018 00:00:00 26,9 15,6 26,4 27,9 26,9 11 6 21 11 NNW 1016,0 25 0 0,0
19.08.2018 23:00:00 27,3 15,3 25,9 27,9 27,1 9 5 16 9 NNW 1016,2 25 0 0,0
19.08.2018 22:00:00 27,6 16,9 26,4 27,9 26,8 4 2 12 6 ZW 1016,2 25 0 0,0
19.08.2018 21:00:00 27,4 20,5 27,0 27,8 26,7 9 5 15 8 ZW 1016,1 25 0 0,0
19.08.2018 20:00:00 29,1 17,3 29,0 27,9 27,0 8 4 13 7 ZW 1015,7 50 26 0,0
19.08.2018 19:00:00 29,9 18,7 34,5 27,8 26,7 8 4 12 7 ZZW 1015,5 50 60 0,0
19.08.2018 18:00:00 30,9 17,6 38,3 27,8 26,8 9 5 15 8 ZZW 1015,8 50 60 0,0
19.08.2018 17:00:00 30,6 17,0 39,1 27,8 26,9 9 5 14 8 ZW 1016,3 50 60 0,0
19.08.2018 16:00:00 30,7 16,3 39,1 27,8 26,9 9 5 16 9 ZW 1016,5 50 60 0,0
19.08.2018 15:00:00 29,9 21,0 39,3 27,9 26,8 10 5 15 8 Z 1016,9 50 60 0,0
19.08.2018 14:00:00 29,1 21,8 37,4 27,8 26,9 14 7 21 11 ZZW 1017,3 50 60 0,0
19.08.2018 13:00:00 29,4 20,5 38,3 27,9 26,8 14 8 18 10 Z 1017,5 50 60 0,0
19.08.2018 12:00:00 30,4 17,8 38,8 27,9 26,9 13 7 19 10 ZZW 1017,3 50 60 0,0
19.08.2018 11:00:00 30,5 13,7 33,1 27,9 26,9 12 6 28 15 NNW 1017,6 50 60 0,0
19.08.2018 10:00:00 27,7 14,3 30,3 27,8 26,8 20 11 26 14 NNW 1017,5 50 60 0,0
19.08.2018 09:00:00 25,9 14,4 26,4 27,9 27,0 16 9 25 13 NNW 1017,3 50 60 0,0
19.08.2018 08:00:00 24,0 14,4 23,3 27,8 26,8 16 8 23 12 NNW 1017,2 50 58 0,0
19.08.2018 07:00:00 23,4 14,4 22,9 27,8 26,8 18 10 29 16 NNW 1017,0 50 0 0,0
19.08.2018 06:00:00 23,5 14,8 23,1 27,8 26,8 16 9 26 14 NNW 1016,7 50 0 0,0
19.08.2018 05:00:00 24,2 14,9 23,8 27,8 26,8 17 9 28 15 NNW 1016,8 50 0 0,0
19.08.2018 04:00:00 24,6 15,5 24,0 27,7 26,7 19 11 27 14 N 1016,7 50 0 0,0
19.08.2018 03:00:00 24,8 15,4 24,5 27,7 26,8 18 10 28 15 N 1016,6 50 0 0,0
19.08.2018 02:00:00 25,2 15,5 24,8 27,7 26,9 17 9 24 13 N 1016,8 50 0 0,0
19.08.2018 01:00:00 25,6 16,2 25,2 27,7 26,8 11 6 27 15 NNW 1017,1 50 0 0,0
19.08.2018 00:00:00 26,0 17,1 25,6 27,7 26,9 16 9 25 14 NNW 1017,1 50 0 0,0
18.08.2018 23:00:00 26,6 17,7 26,3 27,6 26,9 13 7 24 13 NNW 1017,1 50 0 0,0
18.08.2018 22:00:00 27,5 17,4 26,7 27,6 26,6 13 7 17 9 NNW 1017,0 50 0 0,0
18.08.2018 21:00:00 26,9 20,3 26,4 27,6 26,9 8 5 12 7 W 1016,6 50 6 0,0
18.08.2018 20:00:00 27,4 21,7 28,1 27,6 26,8 8 4 13 7 ZW 1016,5 50 12 0,0
18.08.2018 19:00:00 27,9 21,2 32,5 27,6 26,8 10 6 13 7 Z 1016,1 50 60 0,0
18.08.2018 18:00:00 29,1 18,5 35,3 27,6 26,9 6 3 14 7 WZW 1016,3 50 58 0,0
18.08.2018 17:00:00 28,8 19,7 36,3 27,6 26,8 7 4 14 8 Z 1016,0 50 60 0,0
18.08.2018 16:00:00 28,2 20,7 36,3 27,6 26,8 6 3 11 6 ZZO 1016,4 50 60 0,0
18.08.2018 15:00:00 28,5 21,0 37,0 27,6 26,8 8 4 11 6 O 1016,9 50 60 0,0
18.08.2018 14:00:00 27,9 21,4 36,9 27,6 26,9 9 5 14 7 ZO 1017,0 50 60 0,0
18.08.2018 13:00:00 27,8 21,1 35,5 27,6 26,7 9 5 13 7 ZZO 1017,0 50 60 0,0
18.08.2018 12:00:00 27,6 20,7 35,1 27,6 26,9 10 5 13 7 ZO 1016,9 50 60 0,0
18.08.2018 11:00:00 27,9 19,7 35,0 27,6 26,7 8 4 9 5 O 1016,8 50 60 0,0
18.08.2018 10:00:00 28,0 15,0 31,2 27,6 26,8 8 4 24 13 NNW 1016,7 50 60 0,0
18.08.2018 09:00:00 25,8 14,6 26,4 27,6 26,8 14 8 31 17 NNW 1016,3 40 60 0,0
18.08.2018 08:00:00 23,7 14,7 22,9 27,6 26,8 18 10 27 15 NNW 1016,2 40 34 0,0
18.08.2018 07:00:00 23,1 14,6 22,7 27,6 26,8 17 9 24 13 NNW 1015,8 40 0 0,0
18.08.2018 06:00:00 23,7 15,2 23,1 27,6 26,8 13 7 16 8 NNW 1015,3 10 0 0,0
18.08.2018 05:00:00 24,3 15,0 23,6 27,6 26,9 8 4 22 12 NNW 1015,1 30 0 0,0
18.08.2018 04:00:00 24,5 15,4 23,6 27,6 26,9 13 7 22 12 N 1015,0 30 0 0,0
18.08.2018 03:00:00 24,5 15,4 23,8 27,6 26,8 12 6 21 11 NNW 1015,1 30 0 0,0
18.08.2018 02:00:00 24,9 15,8 24,0 27,5 26,8 10 5 18 10 NNW 1015,2 30 0 0,0
18.08.2018 01:00:00 24,8 16,0 24,1 27,5 26,8 10 5 16 8 NNW 1015,3 30 0 0,0
18.08.2018 00:00:00 25,1 16,0 24,4 27,5 26,9 10 6 17 9 N 1015,0 30 0 0,0
17.08.2018 23:00:00 26,0 16,0 25,2 27,5 26,8 14 8 21 11 N 1014,8 30 0 0,0
17.08.2018 22:00:00 25,8 15,8 25,2 27,5 26,9 10 5 24 13 N 1014,4 30 0 0,0
17.08.2018 21:00:00 26,6 15,3 26,3 27,5 26,7 14 8 23 12 NNW 1014,1 30 0 0,0
17.08.2018 20:00:00 27,2 17,1 27,2 27,5 26,8 6 3 10 5 O 1013,5 30 33 0,0
17.08.2018 19:00:00 27,9 19,9 31,1 27,5 26,8 0 0 8 4 N 1013,7 50 51 0,0
17.08.2018 18:00:00 28,1 20,9 35,5 27,5 26,8 6 3 11 6 Z 1013,7 50 60 0,0
17.08.2018 17:00:00 27,9 19,7 35,2 27,5 26,8 10 5 14 8 ZO 1013,8 50 60 0,0
17.08.2018 16:00:00 28,0 20,8 35,4 27,5 26,9 11 6 14 8 ZO 1014,0 50 60 0,0
17.08.2018 15:00:00 28,2 21,5 36,2 27,5 26,9 10 5 14 8 ZO 1014,4 50 60 0,0
17.08.2018 14:00:00 28,4 19,9 33,6 27,5 26,8 8 5 16 9 ZO 1014,6 50 53 0,0
17.08.2018 13:00:00 28,4 20,2 33,5 27,5 26,8 13 7 16 9 O 1014,8 50 32 0,0
17.08.2018 12:00:00 28,2 19,2 33,4 27,5 26,9 7 4 10 5 O 1015,2 50 29 0,0
17.08.2018 11:00:00 29,1 15,6 30,7 27,5 26,8 5 3 10 6 O 1015,1 50 14 0,0
17.08.2018 10:00:00 26,6 16,8 26,5 27,5 26,7 8 4 15 8 NW 1014,8 50 0 0,0
17.08.2018 09:00:00 25,0 17,0 24,8 27,5 26,8 11 6 20 11 NNW 1014,7 50 0 0,0
17.08.2018 08:00:00 24,5 16,7 23,7 27,5 26,9 13 7 17 9 NNW 1014,4 50 0 0,0
17.08.2018 07:00:00 24,1 16,6 23,4 27,5 26,9 12 7 16 9 NNW 1014,1 50 0 0,0
17.08.2018 06:00:00 23,9 16,7 23,4 27,4 26,9 13 7 20 11 NNW 1013,7 50 0 0,0
17.08.2018 05:00:00 24,2 17,0 23,8 27,4 26,8 14 7 26 14 NNW 1013,7 50 0 0,0
17.08.2018 04:00:00 24,7 16,9 24,2 27,4 26,9 20 11 26 14 NNW 1013,8 50 0 0,0
17.08.2018 03:00:00 25,0 17,0 24,2 27,4 26,9 7 4 16 8 N 1013,6 50 0 0,0
17.08.2018 02:00:00 25,6 17,0 24,9 27,4 26,9 12 7 21 11 NNW 1013,6 50 0 0,0
17.08.2018 01:00:00 25,7 16,8 25,4 27,4 26,9 9 5 16 8 NNW 1014,1 50 0 0,0
17.08.2018 00:00:00 26,0 16,5 25,7 27,4 27,0 13 7 22 12 N 1014,2 50 0 0,0
16.08.2018 23:00:00 26,3 16,2 26,0 27,4 26,8 17 9 23 12 NNW 1014,2 50 0 0,0
16.08.2018 22:00:00 26,6 17,4 25,1 27,4 26,8 7 4 9 5 NNO 1014,2 50 0 0,0
16.08.2018 21:00:00 27,3 19,6 27,2 27,3 27,1 2 1 13 7 ZZW 1013,8 50 0 0,0
16.08.2018 20:00:00 27,6 18,3 28,2 27,4 26,9 10 5 14 8 ZW 1013,6 50 0 0,0
16.08.2018 19:00:00 27,7 20,5 29,1 27,4 26,8 12 6 16 8 ZZW 1013,8 50 26 0,0
16.08.2018 18:00:00 28,5 20,0 35,0 27,4 26,8 13 7 17 9 ZZW 1014,0 50 60 0,0
16.08.2018 17:00:00 29,0 19,6 37,0 27,4 27,1 11 6 16 8 Z 1014,1 50 60 0,0
16.08.2018 16:00:00 29,0 19,3 36,6 27,4 27,0 12 7 16 9 Z 1014,3 50 58 0,0
16.08.2018 15:00:00 29,1 18,2 36,7 27,4 26,8 11 6 14 7 Z 1015,1 50 53 0,0
16.08.2018 14:00:00 29,2 17,7 38,5 27,4 27,0 9 5 12 6 Z 1015,6 50 60 0,0
16.08.2018 13:00:00 29,0 16,5 37,6 27,4 26,9 8 5 12 7 Z 1016,0 50 58 0,0
16.08.2018 12:00:00 28,8 17,7 37,6 27,5 26,9 9 5 11 6 Z 1016,2 50 60 0,0
16.08.2018 11:00:00 29,0 16,5 35,7 27,5 26,9 4 2 11 6 ZO 1016,1 50 60 0,0
16.08.2018 10:00:00 28,3 15,6 31,7 27,5 26,9 8 5 21 11 N 1015,9 50 60 0,0
16.08.2018 09:00:00 26,2 15,0 26,4 27,5 26,9 16 8 22 12 N 1015,8 50 60 0,0
16.08.2018 08:00:00 23,8 15,0 22,7 27,5 26,9 18 10 28 15 NNW 1015,8 50 60 0,0
16.08.2018 07:00:00 22,9 15,0 22,1 27,5 27,0 16 9 24 13 N 1015,8 50 2 0,0
16.08.2018 06:00:00 23,1 14,9 22,4 27,5 26,9 14 8 22 12 N 1015,6 30 0 0,0
16.08.2018 05:00:00 23,4 14,9 22,6 27,5 27,0 16 9 24 13 NNW 1015,7 30 0 0,0
16.08.2018 04:00:00 23,3 15,1 22,7 27,5 26,9 18 10 24 13 NNW 1015,8 30 0 0,0
16.08.2018 03:00:00 23,8 15,0 23,2 27,5 27,0 15 8 19 11 NNW 1016,0 30 0 0,0
16.08.2018 02:00:00 24,1 15,0 23,6 27,4 27,0 13 7 19 10 N 1015,9 30 0 0,0
16.08.2018 01:00:00 24,5 15,1 23,8 27,5 27,0 13 7 18 10 NNW 1016,0 30 0 0,0
16.08.2018 00:00:00 24,7 15,3 24,0 27,5 26,9 14 7 20 11 NNW 1015,9 30 0 0,0
15.08.2018 23:00:00 25,1 15,4 24,4 27,5 26,9 12 7 16 9 NNW 1015,7 30 0 0,0
15.08.2018 22:00:00 26,5 15,2 25,1 27,5 27,1 8 4 14 7 NW 1015,8 30 0 0,0
15.08.2018 21:00:00 27,2 17,4 26,5 27,5 27,0 6 3 11 6 ZW 1015,3 30 12 0,0
15.08.2018 20:00:00 28,4 16,0 29,2 27,5 27,2 9 5 15 8 WZW 1015,2 50 34 0,0
15.08.2018 19:00:00 28,6 16,8 30,5 27,5 27,1 10 5 16 9 ZW 1015,1 50 18 0,0
15.08.2018 18:00:00 29,3 18,4 35,7 27,6 27,3 11 6 14 8 ZZW 1015,2 50 57 0,0
15.08.2018 17:00:00 29,5 17,3 38,8 27,6 27,0 7 4 13 7 Z 1015,0 50 60 0,0
15.08.2018 16:00:00 29,6 17,8 38,3 27,6 27,2 10 5 14 8 Z 1015,0 50 60 0,0
15.08.2018 15:00:00 29,5 18,3 37,7 27,6 27,0 11 6 18 10 ZZO 1015,2 50 60 0,0
15.08.2018 14:00:00 29,8 20,4 36,5 27,7 27,1 12 6 19 10 Z 1015,3 50 58 0,0
15.08.2018 13:00:00 28,7 21,5 37,2 27,7 27,2 15 8 18 10 Z 1015,4 50 60 0,0
15.08.2018 12:00:00 28,0 18,7 37,2 27,7 27,1 10 5 16 9 Z 1015,2 50 60 0,0
15.08.2018 11:00:00 28,0 16,0 32,0 27,7 27,0 8 5 23 13 WNW 1015,1 50 60 0,0
15.08.2018 10:00:00 25,8 14,3 28,1 27,8 27,1 14 8 29 16 NW 1014,8 50 60 0,0
15.08.2018 09:00:00 23,5 13,9 23,7 27,8 27,1 18 10 27 15 NNW 1014,7 50 60 0,0
15.08.2018 08:00:00 21,4 14,1 20,4 27,8 27,2 21 12 31 17 NNW 1014,6 50 60 0,0
15.08.2018 07:00:00 20,3 14,0 19,9 27,8 27,1 25 13 42 23 NNW 1014,2 50 3 0,0
15.08.2018 06:00:00 20,2 14,1 19,8 27,9 27,1 24 13 33 18 NNW 1014,0 40 0 0,0

tt = temperatuur
td = dauwpunt
tt 5cm = temperatuur 5cm
tt -20cm = temperatuur -20cm
tt -100cm = temperatuur -100cm
ff = windsnelheid
fx = windstoten
dd = windrichting
ppp = luchtdruk
vv = zicht
sd = Zonneschijnduur
rr = neerslag

Weerstations in de omgeving